QPF
0.00 0.00 0.00 0.00 0.00 0.00 0.00 0.00 0.00 0.00 0.00 0.00 0.00 0.00 0.00 0.00 0.00 0.00 0.00 0.00 0.00 0.00 0.00 0.00 0.00 0.00 0.00 0.00 0.00 0.00 0.00 0.00 0.00 0.00 0.00 0.00 0.00 0.00 0.00 0.00 0.00 0.00 0.00 0.00 0.00 0.00 0.00 0.00 0.00
0.00 0.00 0.00 0.00 0.00 0.00 0.00 0.00 0.00 0.00 0.00 0.00 0.00 0.00 0.00 0.00 0.00 0.00 0.00 0.00 0.00 0.00 0.00 0.00 0.00 0.00 0.00 0.00 0.00 0.00 0.00 0.00 0.00 0.00 0.00 0.00 0.00 0.00 0.00 0.00 0.00 0.00 0.00 0.00 0.00 0.00 0.00 0.00 0.00
0.00 0.00 0.00 0.00 0.00 0.00 0.00 0.00 0.00 0.00 0.00 0.00 0.00 0.00 0.00 0.00 0.00 0.00 0.00 0.00 0.00 0.00 0.00 0.00 0.00 0.00 0.00 0.00 0.00 0.00 0.00 0.00 0.00 0.00 0.00 0.00 0.00 0.00 0.00 0.00 0.00 0.00 0.00 0.00 0.00 0.00 0.00 0.00 0.00
0.00 0.00 0.00 0.00 0.00 0.00 0.00 0.00 0.00 0.00 0.00 0.00 0.00 0.00 0.00 0.00 0.00 0.00 0.00 0.00 0.00 0.00 0.00 0.00 0.00 0.00 0.00 0.00 0.00 0.00 0.00 0.00 0.00 0.00 0.00 0.00 0.00 0.00 0.01 0.00 0.00 0.00 0.00 0.00 0.01 0.02 0.00 0.00 0.00
0.00 0.00 0.00 0.00 0.00 0.00 0.00 0.00 0.00 0.00 0.00 0.00 0.00 0.00 0.00 0.00 0.00 0.00 0.00 0.00 0.00 0.00 0.00 0.00 0.00 0.00 0.00 0.00 0.00 0.00 0.00 0.00 0.00 0.00 0.00 0.00 0.00 0.00 0.00 0.00 0.00 0.01 0.00 0.00 0.01 0.01 0.00 0.00 0.00
0.00 0.00 0.00 0.00 0.00 0.00 0.00 0.00 0.00 0.00 0.00 0.00 0.00 0.00 0.00 0.00 0.00 0.00 0.00 0.00 0.00 0.00 0.00 0.00 0.00 0.00 0.00 0.00 0.00 0.00 0.00 0.00 0.00 0.00 0.00 0.00 0.01 0.00 0.00 0.00 0.00 0.00 0.00 0.01 0.01 0.01 0.02 0.02 0.01
0.00 0.00 0.00 0.00 0.00 0.00 0.00 0.00 0.00 0.00 0.00 0.00 0.00 0.00 0.00 0.00 0.00 0.00 0.00 0.00 0.00 0.00 0.00 0.00 0.00 0.00 0.00 0.00 0.00 0.00 0.00 0.00 0.00 0.00 0.00 0.00 0.00 0.00 0.00 0.00 0.00 0.00 0.00 0.00 0.00 0.01 0.01 0.01 0.01
0.00 0.00 0.00 0.00 0.00 0.00 0.00 0.00 0.00 0.00 0.00 0.00 0.00 0.00 0.00 0.00 0.00 0.00 0.00 0.00 0.00 0.00 0.00 0.00 0.00 0.00 0.00 0.00 0.00 0.00 0.00 0.00 0.00 0.00 0.00 0.00 0.00 0.00 0.00 0.00 0.00 0.00 0.00 0.00 0.00 0.00 0.00 0.00 0.01
0.00 0.00 0.00 0.00 0.00 0.00 0.00 0.00 0.00 0.00 0.00 0.00 0.00 0.00 0.00 0.00 0.00 0.00 0.00 0.00 0.00 0.00 0.00 0.00 0.00 0.00 0.00 0.00 0.00 0.00 0.00 0.00 0.00 0.00 0.00 0.00 0.00 0.00 0.00 0.00 0.00 0.00 0.00 0.00 0.00 0.00 0.00 0.00 0.00
0.00 0.00 0.00 0.00 0.00 0.00 0.00 0.00 0.00 0.00 0.00 0.00 0.00 0.00 0.00 0.00 0.00 0.00 0.00 0.00 0.00 0.00 0.00 0.00 0.00 0.00 0.00 0.00 0.00 0.00 0.00 0.00 0.00 0.00 0.00 0.00 0.00 0.00 0.00 0.00 0.00 0.00 0.00 0.00 0.00 0.01 0.02 0.01 0.00
0.00 0.00 0.00 0.00 0.00 0.00 0.00 0.00 0.00 0.00 0.00 0.00 0.00 0.00 0.00 0.00 0.00 0.00 0.00 0.00 0.00 0.00 0.00 0.00 0.00 0.00 0.00 0.00 0.00 0.00 0.00 0.00 0.00 0.00 0.00 0.00 0.00 0.00 0.00 0.00 0.00 0.00 0.00 0.00 0.00 0.00 0.00 0.00 0.00
0.00 0.00 0.00 0.00 0.00 0.00 0.00 0.00 0.00 0.00 0.00 0.00 0.00 0.00 0.00 0.00 0.00 0.00 0.00 0.00 0.00 0.00 0.00 0.00 0.00 0.00 0.00 0.00 0.00 0.00 0.00 0.00 0.00 0.00 0.00 0.00 0.00 0.00 0.00 0.00 0.00 0.00 0.00 0.00 0.00 0.00 0.00 0.00 0.01
0.00 0.00 0.00 0.00 0.00 0.00 0.00 0.00 0.00 0.00 0.00 0.00 0.00 0.00 0.00 0.00 0.00 0.00 0.00 0.00 0.00 0.00 0.00 0.00 0.00 0.00 0.00 0.00 0.00 0.00 0.00 0.00 0.00 0.00 0.00 0.00 0.00 0.00 0.00 0.00 0.00 0.00 0.00 0.00 0.00 0.00 0.00 0.00 0.01
0.00 0.00 0.00 0.00 0.00 0.00 0.00 0.00 0.00 0.00 0.00 0.00 0.00 0.00 0.00 0.00 0.00 0.00 0.00 0.00 0.00 0.00 0.00 0.00 0.00 0.00 0.00 0.00 0.00 0.00 0.00 0.00 0.00 0.00 0.00 0.00 0.00 0.00 0.00 0.00 0.00 0.00 0.00 0.00 0.00 0.00 0.00 0.00 0.00
0.00 0.00 0.00 0.00 0.00 0.00 0.00 0.00 0.00 0.00 0.00 0.00 0.00 0.00 0.00 0.00 0.00 0.00 0.00 0.00 0.00 0.00 0.00 0.00 0.00 0.00 0.00 0.00 0.00 0.00 0.00 0.00 0.00 0.00 0.00 0.00 0.00 0.00 0.00 0.00 0.00 0.00 0.01 0.00 0.00 0.00 0.00 0.00 0.01
0.00 0.00 0.00 0.00 0.00 0.00 0.00 0.00 0.00 0.00 0.00 0.00 0.00 0.00 0.00 0.00 0.00 0.00 0.00 0.00 0.00 0.00 0.00 0.00 0.00 0.00 0.00 0.00 0.00 0.00 0.00 0.00 0.00 0.00 0.00 0.00 0.00 0.00 0.00 0.00 0.00 0.00 0.01 0.01 0.00 0.00 0.00 0.01 0.02
0.00 0.00 0.00 0.00 0.00 0.00 0.00 0.00 0.00 0.00 0.00 0.00 0.00 0.00 0.00 0.00 0.00 0.00 0.00 0.00 0.00 0.00 0.00 0.00 0.00 0.00 0.00 0.00 0.00 0.00 0.00 0.00 0.00 0.00 0.00 0.00 0.00 0.00 0.00 0.00 0.00 0.00 0.00 0.00 0.00 0.01 0.00 0.02 0.03
0.00 0.00 0.00 0.00 0.00 0.00 0.00 0.00 0.00 0.00 0.00 0.00 0.00 0.00 0.00 0.00 0.00 0.00 0.00 0.00 0.00 0.00 0.00 0.00 0.00 0.00 0.00 0.00 0.00 0.00 0.00 0.00 0.00 0.00 0.00 0.00 0.00 0.00 0.00 0.00 0.00 0.01 0.01 0.00 0.00 0.01 0.00 0.02 0.06
0.00 0.00 0.00 0.00 0.00 0.00 0.00 0.00 0.00 0.00 0.00 0.00 0.00 0.00 0.00 0.00 0.00 0.00 0.00 0.00 0.00 0.00 0.00 0.00 0.00 0.00 0.00 0.00 0.00 0.00 0.00 0.00 0.00 0.00 0.00 0.00 0.00 0.00 0.00 0.00 0.00 0.00 0.00 0.00 0.00 0.00 0.02 0.05 0.04
0.00 0.00 0.00 0.00 0.00 0.00 0.00 0.00 0.00 0.00 0.00 0.00 0.00 0.00 0.00 0.00 0.00 0.00 0.00 0.00 0.00 0.00 0.00 0.00 0.00 0.00 0.00 0.00 0.00 0.00 0.00 0.00 0.00 0.00 0.00 0.00 0.00 0.00 0.00 0.00 0.00 0.00 0.00 0.00 0.00 0.00 0.03 0.05 0.03
0.00 0.00 0.00 0.00 0.00 0.00 0.00 0.00 0.00 0.00 0.00 0.00 0.00 0.00 0.00 0.00 0.00 0.00 0.00 0.00 0.00 0.00 0.00 0.00 0.00 0.00 0.00 0.00 0.00 0.00 0.00 0.00 0.00 0.00 0.00 0.00 0.00 0.00 0.01 0.00 0.00 0.00 0.00 0.00 0.00 0.01 0.04 0.04 0.02
0.00 0.00 0.00 0.00 0.00 0.00 0.00 0.00 0.00 0.00 0.00 0.00 0.00 0.00 0.00 0.00 0.00 0.00 0.00 0.00 0.00 0.00 0.00 0.00 0.00 0.00 0.00 0.00 0.00 0.00 0.00 0.00 0.00 0.00 0.00 0.00 0.00 0.00 0.00 0.01 0.00 0.00 0.00 0.01 0.00 0.00 0.03 0.06 0.05
0.00 0.00 0.00 0.00 0.00 0.00 0.00 0.00 0.00 0.00 0.00 0.00 0.00 0.00 0.00 0.00 0.00 0.00 0.00 0.00 0.00 0.00 0.00 0.00 0.00 0.00 0.00 0.00 0.00 0.00 0.00 0.00 0.00 0.00 0.00 0.00 0.00 0.00 0.00 0.00 0.00 0.00 0.00 0.00 0.00 0.00 0.01 0.02 0.04
0.00 0.00 0.00 0.00 0.00 0.00 0.00 0.00 0.00 0.00 0.00 0.00 0.00 0.00 0.00 0.00 0.00 0.00 0.00 0.00 0.00 0.00 0.00 0.00 0.00 0.00 0.00 0.00 0.00 0.00 0.00 0.00 0.00 0.00 0.00 0.00 0.00 0.00 0.00 0.00 0.00 0.00 0.00 0.00 0.00 0.00 0.01 0.03 0.06
0.00 0.00 0.00 0.00 0.00 0.00 0.00 0.00 0.00 0.00 0.00 0.00 0.00 0.00 0.00 0.00 0.00 0.00 0.00 0.00 0.00 0.00 0.00 0.00 0.00 0.00 0.00 0.00 0.00 0.00 0.00 0.00 0.00 0.00 0.00 0.00 0.00 0.01 0.00 0.00 0.00 0.00 0.00 0.00 0.00 0.00 0.00 0.01 0.05
0.00 0.00 0.00 0.00 0.00 0.00 0.00 0.00 0.00 0.00 0.00 0.00 0.00 0.00 0.00 0.00 0.00 0.00 0.00 0.00 0.00 0.00 0.00 0.00 0.00 0.00 0.00 0.00 0.00 0.00 0.00 0.00 0.00 0.00 0.00 0.00 0.00 0.01 0.00 0.00 0.00 0.00 0.00 0.00 0.00 0.00 0.00 0.00 0.03
0.00 0.00 0.00 0.00 0.00 0.00 0.00 0.00 0.00 0.00 0.00 0.00 0.00 0.00 0.00 0.00 0.00 0.00 0.00 0.00 0.00 0.00 0.00 0.00 0.00 0.00 0.00 0.00 0.00 0.00 0.00 0.00 0.00 0.00 0.00 0.00 0.00 0.00 0.00 0.00 0.00 0.00 0.00 0.00 0.00 0.00 0.00 0.00 0.02
0.00 0.00 0.00 0.00 0.00 0.00 0.00 0.00 0.00 0.00 0.00 0.00 0.00 0.00 0.00 0.00 0.00 0.00 0.00 0.00 0.00 0.00 0.00 0.00 0.00 0.00 0.00 0.00 0.00 0.00 0.00 0.00 0.00 0.00 0.00 0.00 0.00 0.00 0.00 0.00 0.01 0.00 0.00 0.00 0.00 0.00 0.00 0.00 0.00
0.00 0.00 0.00 0.00 0.00 0.00 0.00 0.00 0.00 0.00 0.00 0.00 0.00 0.00 0.00 0.00 0.00 0.00 0.00 0.00 0.00 0.00 0.00 0.00 0.00 0.00 0.00 0.00 0.00 0.00 0.00 0.00 0.00 0.00 0.00 0.00 0.00 0.00 0.00 0.00 0.01 0.00 0.00 0.00 0.00 0.00 0.00 0.00 0.00
0.00 0.00 0.00 0.00 0.00 0.00 0.00 0.00 0.00 0.00 0.00 0.00 0.00 0.00 0.00 0.00 0.00 0.00 0.00 0.00 0.00 0.00 0.00 0.00 0.00 0.00 0.00 0.00 0.00 0.00 0.00 0.00 0.00 0.00 0.00 0.00 0.00 0.00 0.00 0.00 0.00 0.00 0.00 0.00 0.00 0.00 0.00 0.00 0.00
MSLP
1014.08 1014.19 1014.21 1013.69 1013.62 1012.58 1011.01 1010.05 1009.63 1008.95 1008.61 1008.65 1008.71 1008.64 1008.47 1008.10 1008.13 1007.99 1008.19 1008.55 1008.83 1009.30 1010.24 1011.13 1011.71 1012.06 1012.36 1012.72 1013.04 1013.35 1013.65 1013.87 1014.08 1014.31 1014.52 1014.68 1014.83 1015.08 1015.24 1015.25 1015.32 1015.38 1015.33 1015.45 1015.60 1015.64 1015.44 1015.53 1015.62
1013.88 1014.17 1013.95 1013.29 1012.66 1011.52 1010.32 1009.63 1008.87 1008.50 1008.38 1008.21 1008.19 1008.08 1008.16 1007.70 1007.81 1007.50 1007.70 1008.27 1008.85 1009.23 1009.94 1010.37 1011.03 1011.39 1011.89 1012.43 1012.88 1013.19 1013.53 1013.77 1013.91 1014.14 1014.38 1014.49 1014.53 1014.67 1014.82 1014.97 1015.05 1015.18 1015.15 1015.02 1015.12 1015.34 1015.34 1015.35 1015.31
1013.69 1013.41 1012.67 1012.39 1011.93 1010.51 1009.40 1008.96 1008.45 1008.20 1008.05 1007.94 1007.75 1007.85 1007.68 1007.24 1007.39 1007.24 1007.16 1007.93 1008.65 1009.24 1009.59 1010.06 1010.63 1011.19 1011.61 1012.01 1012.50 1012.88 1013.19 1013.43 1013.67 1013.87 1014.08 1014.22 1014.34 1014.38 1014.47 1014.61 1014.77 1014.71 1014.78 1014.71 1014.61 1014.91 1014.96 1015.10 1015.07
1013.04 1012.94 1012.79 1011.94 1010.99 1010.39 1009.33 1008.53 1008.46 1008.07 1007.63 1007.69 1007.58 1007.39 1007.45 1006.82 1006.87 1007.00 1007.40 1007.96 1008.54 1009.01 1009.43 1009.97 1010.40 1010.74 1011.36 1011.84 1012.27 1012.53 1012.85 1013.16 1013.51 1013.69 1013.84 1014.00 1014.12 1014.10 1014.30 1014.38 1014.47 1014.56 1014.48 1014.47 1014.36 1014.60 1014.63 1014.90 1014.83
1012.70 1012.28 1011.82 1011.42 1010.59 1009.84 1009.12 1008.42 1008.35 1007.91 1007.83 1007.28 1007.54 1007.17 1007.02 1006.68 1006.97 1007.12 1007.64 1008.01 1008.15 1008.72 1009.22 1009.68 1010.20 1010.54 1010.96 1011.59 1012.06 1012.46 1012.74 1013.01 1013.28 1013.54 1013.66 1013.73 1013.78 1013.94 1013.97 1014.16 1014.18 1014.18 1014.18 1014.19 1014.22 1014.33 1014.33 1014.55 1014.67
1011.94 1012.32 1011.53 1010.59 1009.86 1009.14 1008.54 1007.92 1008.05 1007.69 1007.63 1007.30 1007.42 1007.12 1006.64 1006.70 1007.04 1007.17 1007.56 1007.90 1008.14 1008.48 1008.91 1009.32 1009.94 1010.38 1010.79 1011.26 1011.79 1012.26 1012.58 1012.86 1013.09 1013.29 1013.50 1013.53 1013.61 1013.68 1013.75 1013.86 1013.88 1013.86 1013.93 1013.90 1013.96 1013.99 1014.13 1014.47 1014.45
1011.32 1011.56 1010.75 1010.17 1009.24 1008.79 1008.06 1007.68 1007.46 1007.27 1007.29 1007.15 1007.30 1006.74 1006.33 1006.55 1006.87 1007.28 1007.49 1007.74 1008.08 1008.44 1008.80 1009.20 1009.48 1010.02 1010.52 1011.08 1011.60 1012.01 1012.35 1012.69 1012.90 1013.16 1013.31 1013.38 1013.44 1013.54 1013.59 1013.69 1013.72 1013.68 1013.67 1013.63 1013.62 1013.85 1014.07 1014.25 1014.47
1011.45 1011.17 1010.49 1009.84 1008.77 1007.70 1007.42 1007.59 1007.35 1007.25 1007.09 1007.26 1007.21 1006.53 1006.28 1006.49 1007.16 1007.51 1007.73 1007.70 1007.97 1008.24 1008.58 1009.00 1009.23 1009.62 1010.21 1010.57 1011.09 1011.53 1011.96 1012.30 1012.57 1012.85 1013.08 1013.14 1013.24 1013.40 1013.46 1013.53 1013.57 1013.56 1013.51 1013.51 1013.46 1013.61 1013.84 1013.98 1014.13
1011.77 1010.92 1009.71 1009.01 1008.54 1007.26 1007.60 1007.29 1007.56 1007.52 1007.27 1007.06 1006.78 1006.51 1006.41 1006.88 1007.35 1007.42 1007.80 1007.77 1007.60 1007.93 1008.23 1008.65 1009.03 1009.38 1009.86 1010.35 1010.68 1011.21 1011.67 1011.99 1012.26 1012.54 1012.74 1012.94 1012.87 1012.99 1013.19 1013.28 1013.44 1013.47 1013.43 1013.38 1013.35 1013.36 1013.46 1013.68 1013.78
1010.91 1009.99 1008.78 1008.04 1007.82 1007.71 1008.14 1007.97 1008.09 1007.78 1007.10 1005.96 1006.14 1006.12 1006.58 1006.90 1007.07 1007.01 1007.01 1006.73 1006.77 1007.16 1007.35 1008.02 1008.60 1008.90 1009.41 1010.11 1010.72 1010.91 1011.24 1011.55 1011.78 1012.02 1012.30 1012.46 1012.66 1012.94 1013.13 1013.26 1013.35 1013.36 1013.29 1013.29 1013.19 1013.09 1013.13 1013.15 1012.69
1009.51 1008.85 1008.25 1007.60 1007.31 1007.86 1007.72 1007.50 1007.86 1007.53 1006.51 1005.34 1005.64 1005.34 1005.46 1005.97 1006.28 1006.38 1005.93 1005.76 1005.36 1006.17 1006.85 1007.24 1008.27 1009.04 1009.42 1009.82 1010.41 1010.75 1011.10 1011.44 1011.79 1011.97 1012.21 1012.32 1012.61 1012.74 1012.82 1012.81 1012.88 1012.93 1012.96 1012.92 1012.89 1012.85 1012.74 1012.47 1012.33
1008.44 1008.41 1008.13 1007.27 1007.64 1007.93 1007.57 1007.28 1007.04 1007.34 1005.96 1005.31 1005.47 1005.48 1005.37 1005.11 1005.25 1005.43 1005.13 1004.88 1005.28 1005.67 1006.10 1007.05 1007.90 1008.67 1009.24 1009.53 1010.06 1010.44 1010.91 1011.33 1011.40 1011.60 1012.06 1012.24 1012.34 1012.48 1012.55 1012.58 1012.53 1012.77 1012.62 1012.79 1012.76 1012.65 1012.67 1012.60 1012.41
1007.94 1007.82 1007.90 1007.69 1007.64 1007.89 1007.75 1007.10 1007.10 1006.35 1004.86 1004.94 1005.08 1004.77 1004.53 1004.31 1004.14 1004.30 1004.44 1004.44 1004.80 1005.18 1006.15 1006.95 1007.64 1008.21 1008.98 1009.64 1009.90 1010.31 1010.68 1010.86 1011.00 1011.34 1011.69 1011.95 1011.96 1012.14 1012.19 1012.28 1012.43 1012.43 1012.31 1012.39 1012.41 1012.28 1012.37 1012.32 1012.20
1007.26 1007.71 1007.52 1007.55 1007.49 1007.29 1007.14 1006.31 1007.02 1005.44 1004.39 1004.74 1004.57 1004.00 1003.63 1003.27 1003.27 1003.68 1003.95 1003.80 1004.37 1004.73 1005.54 1006.75 1007.14 1007.82 1008.67 1009.33 1009.86 1010.15 1010.48 1010.60 1010.87 1011.19 1011.44 1011.74 1011.79 1011.80 1011.89 1012.05 1012.12 1012.09 1012.13 1012.13 1012.19 1012.14 1012.27 1012.14 1012.02
1007.59 1007.64 1007.39 1007.39 1007.21 1006.98 1006.59 1005.67 1005.50 1004.52 1004.39 1004.28 1003.75 1003.26 1002.97 1002.50 1002.78 1003.05 1002.83 1003.04 1003.06 1004.14 1005.38 1006.50 1007.08 1007.75 1008.39 1009.13 1009.72 1010.03 1010.12 1010.50 1010.74 1011.03 1011.28 1011.37 1011.54 1011.56 1011.73 1011.68 1011.64 1011.59 1011.82 1011.96 1012.06 1012.11 1012.08 1012.00 1011.94
1007.61 1007.58 1006.53 1006.06 1006.41 1006.36 1006.51 1003.96 1004.54 1003.87 1003.99 1003.71 1003.34 1002.94 1002.61 1001.99 1001.98 1001.96 1002.07 1002.43 1003.17 1004.28 1005.25 1006.03 1006.66 1007.33 1007.89 1008.71 1009.39 1009.73 1009.89 1010.30 1010.50 1010.77 1010.80 1010.86 1010.98 1011.17 1011.25 1011.22 1011.13 1011.30 1011.49 1011.56 1011.77 1011.78 1011.74 1011.76 1011.82
1007.21 1005.87 1005.87 1005.64 1005.87 1005.74 1005.66 1003.72 1003.78 1003.90 1003.74 1003.42 1002.64 1002.31 1001.80 1001.43 1001.23 1001.17 1001.56 1001.88 1002.90 1003.59 1004.37 1005.39 1006.52 1007.34 1007.72 1008.31 1008.93 1009.52 1009.90 1010.12 1010.24 1010.39 1010.34 1010.32 1010.50 1010.69 1010.72 1010.69 1010.88 1011.10 1011.27 1011.46 1011.58 1011.52 1011.47 1011.54 1011.72
1004.73 1005.18 1005.17 1005.23 1005.32 1005.15 1004.55 1003.62 1003.87 1003.10 1003.19 1002.94 1002.13 1001.70 1001.40 1001.09 1000.41 1000.71 1001.24 1001.93 1002.64 1003.29 1003.88 1004.65 1005.50 1006.88 1007.59 1008.33 1008.83 1009.23 1009.70 1009.82 1009.86 1009.91 1009.81 1009.93 1010.07 1010.23 1010.21 1010.46 1010.50 1010.78 1011.00 1011.26 1011.46 1011.30 1011.38 1011.26 1011.46
1005.18 1004.95 1004.51 1004.63 1004.93 1004.77 1003.91 1003.49 1003.16 1002.72 1002.81 1002.40 1001.58 1001.03 1000.75 1000.38 1000.45 1001.19 1001.69 1002.51 1002.89 1003.38 1003.89 1004.68 1005.60 1006.94 1007.42 1007.98 1008.50 1008.90 1009.12 1009.34 1009.49 1009.58 1009.49 1009.52 1009.63 1009.67 1009.91 1010.10 1010.40 1010.71 1010.76 1010.87 1011.04 1011.02 1011.07 1011.25 1011.41
1005.27 1004.70 1004.13 1004.43 1004.55 1004.73 1003.79 1002.96 1003.04 1002.46 1002.15 1001.55 1000.88 1000.39 1000.02 1000.05 1000.54 1001.48 1002.20 1002.86 1003.36 1003.76 1004.41 1005.16 1005.82 1006.63 1007.19 1007.74 1008.34 1008.66 1008.92 1009.12 1009.26 1009.30 1009.20 1009.18 1009.23 1009.29 1009.53 1009.82 1010.18 1010.38 1010.52 1010.66 1010.75 1010.79 1010.89 1011.09 1011.24
1004.27 1003.86 1004.18 1004.10 1004.38 1004.40 1003.95 1002.50 1002.61 1001.51 1001.50 1000.48 999.95 999.92 999.68 999.97 1000.35 1001.51 1002.16 1002.99 1003.61 1004.07 1004.74 1005.31 1005.95 1006.54 1007.10 1007.86 1008.34 1008.75 1009.09 1009.11 1008.99 1008.89 1008.93 1009.00 1009.06 1009.04 1009.20 1009.53 1009.80 1009.98 1010.08 1010.08 1010.49 1010.57 1010.55 1010.57 1011.06
1003.28 1004.33 1004.58 1004.89 1005.02 1003.87 1004.21 1001.94 1002.02 1001.11 1000.29 999.45 998.98 999.09 999.13 999.63 1000.67 1001.43 1002.20 1003.08 1003.72 1004.28 1004.94 1005.56 1006.03 1006.59 1007.25 1007.84 1008.08 1008.45 1008.54 1008.51 1008.69 1008.78 1008.82 1008.84 1008.85 1008.80 1008.81 1009.08 1009.35 1009.62 1009.79 1009.93 1010.24 1010.34 1010.30 1010.44 1010.52
1002.18 1004.02 1004.35 1004.83 1005.02 1004.90 1004.19 1003.29 1001.21 1001.00 999.43 998.41 998.04 998.49 999.16 999.93 1000.54 1001.43 1002.20 1002.90 1003.73 1004.54 1005.12 1005.68 1006.21 1006.70 1007.33 1007.69 1007.99 1008.27 1008.45 1008.54 1008.62 1008.74 1008.72 1008.70 1008.66 1008.76 1008.85 1009.02 1009.20 1009.39 1009.62 1009.90 1010.00 1010.26 1010.29 1010.44 1010.29
1003.03 1003.55 1004.06 1004.39 1004.53 1003.57 1003.13 1003.15 999.69 999.44 998.35 997.55 997.16 997.86 998.82 999.89 1000.75 1001.77 1002.52 1003.03 1003.86 1004.66 1005.28 1005.76 1006.28 1006.81 1007.34 1007.67 1008.05 1008.13 1008.27 1008.40 1008.43 1008.47 1008.42 1008.42 1008.61 1008.70 1008.77 1008.92 1009.01 1009.19 1009.51 1009.70 1009.84 1010.14 1010.42 1010.52 1010.31
1002.25 1002.89 1003.29 1003.68 1003.42 1001.57 1002.24 1001.96 998.77 998.19 997.65 997.36 997.16 997.64 998.88 1000.00 1000.89 1001.86 1002.70 1003.03 1003.94 1004.64 1005.23 1005.76 1006.31 1006.87 1007.26 1007.61 1007.80 1008.02 1008.21 1008.33 1008.34 1008.36 1008.22 1008.30 1008.42 1008.51 1008.69 1008.81 1008.99 1009.22 1009.41 1009.66 1009.78 1010.05 1010.07 1010.13 1010.21
1000.20 1000.65 1000.83 1001.18 1001.31 1000.99 1001.09 1000.07 997.79 997.22 996.10 996.48 996.79 997.59 998.91 1000.08 1000.93 1001.80 1002.60 1003.32 1003.86 1004.57 1005.14 1005.61 1006.23 1006.73 1007.20 1007.46 1007.66 1007.95 1008.13 1008.20 1008.16 1008.15 1008.18 1008.26 1008.21 1008.27 1008.68 1008.73 1008.99 1009.19 1009.30 1009.52 1009.75 1009.89 1009.90 1010.06 1010.28
999.39 999.75 1000.31 1000.53 1001.08 1000.37 999.07 999.04 997.54 996.34 995.80 995.94 996.26 997.45 998.68 999.98 1000.81 1001.75 1002.63 1003.35 1003.87 1004.50 1005.04 1005.52 1006.17 1006.59 1006.98 1007.31 1007.53 1007.80 1007.98 1008.16 1008.11 1008.17 1008.34 1008.20 1008.33 1008.47 1008.63 1008.74 1009.00 1009.14 1009.33 1009.44 1009.67 1009.76 1009.96 1010.17 1010.40
997.70 999.24 1000.25 1000.00 999.53 999.25 998.22 997.82 996.10 995.27 995.18 995.30 996.03 997.17 998.63 1000.00 1000.92 1001.77 1002.58 1003.28 1003.93 1004.38 1005.03 1005.69 1006.11 1006.44 1006.87 1007.17 1007.42 1007.59 1007.81 1008.03 1008.05 1008.11 1008.17 1008.19 1008.27 1008.37 1008.61 1008.87 1009.03 1009.24 1009.44 1009.56 1009.73 1009.87 1010.14 1010.23 1010.43
997.65 998.13 998.52 998.88 998.83 998.05 997.40 996.19 995.21 994.48 994.64 994.98 995.65 996.78 998.30 999.67 1000.61 1001.47 1002.35 1003.21 1003.83 1004.28 1004.96 1005.63 1006.07 1006.47 1006.81 1007.13 1007.47 1007.60 1007.71 1007.96 1008.01 1008.05 1008.13 1008.18 1008.20 1008.42 1008.67 1008.92 1009.02 1009.27 1009.52 1009.70 1009.82 1009.99 1010.13 1010.48 1010.89
996.79 996.89 997.35 997.21 998.15 997.82 997.18 995.67 994.91 994.73 994.99 995.38 995.89 997.08 998.40 999.53 1000.26 1001.32 1002.15 1002.97 1003.64 1004.21 1004.82 1005.37 1005.97 1006.30 1006.67 1007.09 1007.43 1007.53 1007.73 1007.90 1007.96 1008.05 1008.15 1008.11 1008.16 1008.44 1008.78 1009.04 1009.23 1009.68 1009.87 1009.99 1010.01 1010.31 1010.41 1010.68 1011.06
Thickness
5774 5773 5775 5774 5753 5750 5749 5762 5772 5772 5777 5788 5788 5782 5782 5790 5776 5766 5807 5805 5803 5795 5783 5772 5764 5759 5755 5749 5744 5740 5735 5731 5727 5723 5719 5716 5712 5709 5708 5709 5709 5708 5709 5708 5706 5707 5711 5712 5713
5773 5771 5770 5763 5744 5735 5752 5766 5769 5779 5787 5794 5790 5787 5781 5782 5796 5801 5803 5803 5799 5791 5781 5773 5764 5761 5754 5747 5740 5735 5730 5726 5722 5718 5714 5712 5710 5707 5705 5703 5702 5702 5703 5705 5705 5702 5705 5706 5709
5771 5774 5766 5756 5744 5747 5757 5768 5778 5783 5788 5786 5786 5792 5788 5788 5798 5802 5811 5804 5797 5788 5780 5770 5763 5758 5752 5744 5735 5730 5725 5721 5718 5715 5711 5708 5705 5704 5702 5701 5699 5700 5699 5700 5701 5699 5700 5701 5705
5768 5765 5760 5747 5745 5754 5762 5773 5778 5780 5788 5787 5786 5780 5796 5809 5802 5808 5807 5802 5793 5785 5776 5767 5760 5757 5749 5741 5733 5728 5723 5717 5712 5709 5706 5703 5701 5700 5697 5697 5695 5695 5696 5697 5697 5696 5695 5694 5699
5764 5758 5743 5739 5745 5757 5767 5775 5774 5773 5777 5786 5782 5777 5783 5802 5806 5805 5800 5797 5792 5784 5774 5764 5758 5753 5747 5739 5731 5725 5719 5714 5709 5703 5699 5697 5695 5693 5692 5690 5690 5691 5692 5692 5691 5692 5692 5689 5692
5750 5746 5731 5737 5748 5762 5770 5779 5772 5772 5776 5780 5774 5773 5786 5800 5796 5798 5798 5792 5788 5780 5772 5763 5756 5749 5744 5737 5730 5723 5717 5711 5706 5700 5695 5693 5690 5688 5686 5684 5684 5684 5683 5685 5685 5686 5685 5681 5683
5745 5735 5735 5739 5750 5755 5767 5778 5769 5771 5770 5771 5779 5769 5788 5791 5795 5792 5791 5788 5782 5776 5768 5761 5754 5747 5741 5733 5726 5719 5713 5707 5702 5696 5691 5688 5685 5682 5680 5678 5677 5677 5677 5678 5678 5677 5675 5674 5673
5743 5736 5728 5738 5749 5760 5777 5773 5776 5771 5766 5779 5780 5765 5767 5787 5787 5786 5785 5783 5777 5772 5766 5758 5751 5747 5737 5731 5724 5718 5710 5704 5699 5692 5686 5683 5680 5676 5673 5671 5669 5669 5670 5670 5670 5669 5667 5667 5667
5737 5720 5725 5739 5741 5765 5771 5766 5769 5774 5765 5770 5778 5776 5780 5781 5779 5777 5772 5773 5773 5768 5764 5756 5750 5743 5736 5728 5723 5716 5708 5700 5694 5688 5682 5677 5674 5670 5667 5664 5661 5661 5661 5662 5662 5662 5662 5661 5661
5725 5719 5734 5759 5761 5756 5753 5754 5753 5754 5758 5771 5773 5781 5777 5773 5772 5770 5769 5771 5770 5766 5765 5757 5749 5743 5734 5725 5717 5712 5705 5698 5691 5685 5679 5673 5669 5664 5660 5657 5655 5653 5653 5653 5655 5656 5656 5656 5661
5730 5717 5748 5757 5763 5751 5751 5753 5754 5748 5750 5776 5765 5774 5780 5773 5769 5768 5774 5776 5778 5772 5765 5759 5747 5737 5730 5722 5714 5708 5700 5693 5686 5680 5673 5668 5663 5659 5656 5653 5651 5648 5647 5647 5647 5648 5649 5653 5654
5720 5729 5741 5756 5752 5740 5743 5752 5750 5743 5760 5778 5771 5769 5769 5770 5769 5769 5772 5777 5772 5769 5765 5755 5746 5735 5727 5720 5713 5705 5697 5687 5683 5677 5668 5663 5658 5654 5652 5648 5647 5643 5643 5640 5639 5640 5641 5642 5644
5711 5726 5734 5740 5740 5735 5739 5739 5736 5746 5776 5775 5767 5767 5764 5766 5770 5773 5772 5776 5773 5766 5758 5750 5743 5735 5725 5714 5708 5699 5692 5685 5680 5672 5666 5660 5655 5650 5646 5643 5639 5637 5637 5634 5635 5636 5635 5635 5636
5724 5716 5722 5725 5729 5736 5727 5738 5725 5756 5772 5759 5759 5759 5762 5765 5768 5767 5768 5771 5768 5766 5757 5746 5742 5734 5723 5712 5702 5694 5687 5681 5674 5667 5662 5655 5650 5646 5642 5638 5634 5633 5630 5628 5628 5628 5627 5628 5630
5709 5696 5706 5708 5722 5722 5732 5722 5726 5758 5759 5748 5752 5756 5756 5764 5763 5764 5773 5772 5776 5766 5753 5742 5736 5729 5719 5708 5698 5689 5683 5676 5669 5662 5657 5652 5646 5642 5637 5633 5631 5628 5624 5622 5621 5620 5620 5622 5623
5689 5688 5685 5716 5720 5723 5719 5717 5740 5760 5747 5741 5745 5747 5751 5760 5766 5773 5776 5775 5771 5758 5748 5741 5734 5725 5717 5706 5695 5686 5679 5672 5665 5658 5654 5649 5644 5639 5635 5632 5629 5624 5620 5618 5616 5616 5616 5617 5617
5674 5679 5683 5702 5714 5718 5712 5717 5740 5748 5739 5733 5745 5748 5757 5763 5771 5776 5776 5777 5766 5760 5751 5740 5728 5718 5713 5704 5694 5682 5675 5668 5662 5656 5651 5647 5642 5637 5632 5630 5624 5619 5615 5612 5610 5610 5611 5611 5609
5682 5675 5686 5684 5707 5711 5711 5714 5723 5743 5734 5732 5744 5752 5757 5762 5773 5777 5776 5771 5765 5758 5750 5742 5730 5717 5708 5697 5688 5680 5671 5665 5659 5654 5650 5644 5639 5633 5630 5624 5620 5614 5610 5607 5604 5605 5606 5607 5604
5685 5681 5685 5693 5703 5700 5709 5708 5718 5734 5730 5731 5742 5752 5757 5765 5774 5768 5766 5761 5757 5751 5744 5736 5724 5710 5702 5693 5683 5675 5668 5663 5656 5651 5646 5642 5637 5632 5627 5621 5615 5609 5606 5603 5600 5602 5601 5599 5600
5668 5670 5677 5689 5698 5693 5702 5702 5711 5722 5726 5735 5744 5753 5761 5766 5767 5759 5754 5752 5748 5741 5734 5725 5717 5706 5698 5690 5681 5673 5666 5659 5653 5648 5644 5640 5634 5629 5623 5617 5610 5606 5603 5600 5599 5599 5598 5597 5599
5663 5666 5673 5679 5687 5688 5684 5690 5696 5725 5727 5741 5751 5756 5763 5763 5764 5753 5751 5746 5738 5732 5725 5718 5710 5701 5694 5684 5676 5667 5659 5654 5650 5646 5642 5636 5630 5625 5620 5614 5609 5606 5604 5602 5599 5599 5599 5599 5598
5654 5668 5666 5664 5657 5662 5677 5662 5685 5715 5723 5739 5751 5756 5763 5764 5755 5751 5747 5737 5732 5725 5719 5711 5704 5696 5688 5680 5672 5663 5657 5652 5648 5643 5638 5633 5627 5623 5619 5614 5610 5607 5604 5602 5601 5601 5601 5603 5603
5670 5663 5658 5655 5643 5647 5662 5649 5691 5705 5717 5739 5753 5757 5758 5755 5752 5747 5742 5735 5728 5719 5712 5705 5698 5691 5683 5676 5668 5660 5653 5649 5645 5639 5634 5628 5625 5620 5616 5613 5610 5606 5603 5601 5602 5602 5605 5605 5608
5666 5654 5650 5651 5651 5633 5664 5653 5697 5712 5726 5740 5757 5760 5753 5748 5745 5741 5736 5732 5721 5714 5706 5700 5693 5685 5678 5671 5663 5658 5651 5647 5642 5636 5631 5626 5621 5617 5615 5612 5610 5607 5602 5601 5604 5605 5605 5607 5610
5653 5640 5621 5619 5625 5647 5670 5661 5705 5726 5736 5741 5750 5757 5749 5743 5741 5735 5728 5724 5714 5707 5701 5695 5688 5680 5674 5666 5661 5655 5650 5644 5639 5634 5631 5625 5620 5618 5615 5612 5609 5606 5605 5605 5608 5609 5612 5613 5615
5660 5659 5646 5624 5633 5653 5677 5660 5706 5735 5749 5753 5755 5755 5747 5739 5738 5733 5726 5717 5712 5704 5698 5693 5686 5678 5670 5665 5659 5654 5649 5644 5639 5635 5629 5623 5622 5621 5616 5613 5610 5609 5609 5611 5612 5613 5616 5618 5619
5658 5643 5670 5658 5647 5657 5684 5682 5718 5738 5741 5746 5753 5750 5744 5737 5735 5729 5720 5713 5708 5701 5695 5691 5683 5676 5669 5664 5658 5653 5648 5643 5639 5634 5628 5625 5622 5620 5617 5615 5612 5613 5613 5616 5616 5617 5618 5619 5620
5668 5673 5639 5651 5642 5639 5673 5677 5709 5733 5739 5748 5751 5747 5739 5733 5731 5723 5716 5710 5704 5700 5694 5688 5682 5675 5668 5663 5658 5654 5649 5644 5639 5635 5630 5627 5625 5623 5619 5616 5615 5616 5617 5618 5619 5620 5621 5622 5623
5652 5650 5653 5662 5660 5658 5663 5690 5732 5741 5743 5750 5756 5750 5740 5735 5730 5722 5716 5708 5703 5699 5692 5685 5679 5672 5668 5662 5656 5653 5648 5643 5639 5637 5633 5630 5628 5625 5622 5619 5620 5620 5620 5621 5622 5623 5624 5623 5621
5667 5668 5670 5665 5648 5670 5673 5694 5732 5735 5738 5745 5749 5742 5739 5736 5730 5722 5714 5707 5701 5695 5689 5684 5678 5673 5669 5662 5656 5653 5647 5643 5639 5637 5634 5633 5630 5628 5625 5623 5622 5621 5621 5622 5623 5623 5625 5625 5623